owner,sensor,date,latitude,longitude,vertical_datum,sea_water_practical_salinity,qcFlag 
DISL,ioos:station:DISL:KATA:1,2017-05-01T00:00:00Z,30.2583,-88.2131,4.303,19.5,1111122 
DISL,ioos:station:DISL:KATA:1,2017-05-01T00:30:00Z,30.2583,-88.2131,4.202,19.37,1111122 
DISL,ioos:station:DISL:KATA:1,2017-05-01T01:00:00Z,30.2583,-88.2131,4.247,19.53,1111122 
DISL,ioos:station:DISL:KATA:1,2017-05-01T01:30:00Z,30.2583,-88.2131,4.125,19.16,1111122 
DISL,ioos:station:DISL:KATA:1,2017-05-01T02:00:00Z,30.2583,-88.2131,4.104,18.98,1111122 
DISL,ioos:station:DISL:KATA:1,2017-05-01T02:30:00Z,30.2583,-88.2131,4.008,18.18,1111122 
DISL,ioos:station:DISL:KATA:1,2017-05-01T03:00:00Z,30.2583,-88.2131,3.966,17.1,1111122 
DISL,ioos:station:DISL:KATA:1,2017-05-01T03:30:00Z,30.2583,-88.2131,3.984,16.62,1111122 
DISL,ioos:station:DISL:KATA:1,2017-05-01T04:00:00Z,30.2583,-88.2131,4.103,16.62,1111122 
DISL,ioos:station:DISL:KATA:1,2017-05-01T04:30:00Z,30.2583,-88.2131,4.145,16.73,1111122 
DISL,ioos:station:DISL:KATA:1,2017-05-01T05:00:00Z,30.2583,-88.2131,4.171,16.81,1111122 
DISL,ioos:station:DISL:KATA:1,2017-05-01T05:30:00Z,30.2583,-88.2131,4.215,16.88,1111122 
DISL,ioos:station:DISL:KATA:1,2017-05-01T06:00:00Z,30.2583,-88.2131,4.273,17.23,1111122 
DISL,ioos:station:DISL:KATA:1,2017-05-01T06:30:00Z,30.2583,-88.2131,4.284,17.57,1111122 
DISL,ioos:station:DISL:KATA:1,2017-05-01T07:00:00Z,30.2583,-88.2131,4.244,17.66,1111122 
DISL,ioos:station:DISL:KATA:1,2017-05-01T07:30:00Z,30.2583,-88.2131,4.287,18.0,1111122 
DISL,ioos:station:DISL:KATA:1,2017-05-01T08:00:00Z,30.2583,-88.2131,4.327,18.76,1111122 
DISL,ioos:station:DISL:KATA:1,2017-05-01T08:30:00Z,30.2583,-88.2131,4.496,19.11,1111122 
DISL,ioos:station:DISL:KATA:1,2017-05-01T09:00:00Z,30.2583,-88.2131,4.344,18.7,1111122 
DISL,ioos:station:DISL:KATA:1,2017-05-01T09:30:00Z,30.2583,-88.2131,4.204,18.54,1111122 
DISL,ioos:station:DISL:KATA:1,2017-05-01T10:00:00Z,30.2583,-88.2131,4.2,18.54,1111122 
DISL,ioos:station:DISL:KATA:1,2017-05-01T10:30:00Z,30.2583,-88.2131,4.132,18.33,1111122 
DISL,ioos:station:DISL:KATA:1,2017-05-01T11:00:00Z,30.2583,-88.2131,4.117,18.26,1111122 
DISL,ioos:station:DISL:KATA:1,2017-05-01T11:30:00Z,30.2583,-88.2131,4.111,18.12,1111122 
DISL,ioos:station:DISL:KATA:1,2017-05-01T12:00:00Z,30.2583,-88.2131,4.136,17.92,1111122 
DISL,ioos:station:DISL:KATA:1,2017-05-01T12:30:00Z,30.2583,-88.2131,4.15,17.93,1111122 
DISL,ioos:station:DISL:KATA:1,2017-05-01T13:00:00Z,30.2583,-88.2131,4.162,18.11,1111122 
DISL,ioos:station:DISL:KATA:1,2017-05-01T13:30:00Z,30.2583,-88.2131,4.198,18.46,1111122 
DISL,ioos:station:DISL:KATA:1,2017-05-01T14:00:00Z,30.2583,-88.2131,4.221,18.43,1111122 
DISL,ioos:station:DISL:KATA:1,2017-05-01T14:30:00Z,30.2583,-88.2131,4.294,18.56,1111122 
DISL,ioos:station:DISL:KATA:1,2017-05-01T15:00:00Z,30.2583,-88.2131,4.357,18.38,1111122 
DISL,ioos:station:DISL:KATA:1,2017-05-01T15:30:00Z,30.2583,-88.2131,4.403,18.41,1111122 
DISL,ioos:station:DISL:KATA:1,2017-05-01T16:00:00Z,30.2583,-88.2131,4.421,18.55,1111122 
DISL,ioos:station:DISL:KATA:1,2017-05-01T16:30:00Z,30.2583,-88.2131,4.439,18.8,1111122 
DISL,ioos:station:DISL:KATA:1,2017-05-01T17:00:00Z,30.2583,-88.2131,4.438,18.88,1111122 
DISL,ioos:station:DISL:KATA:1,2017-05-01T17:30:00Z,30.2583,-88.2131,4.439,19.09,1111122 
DISL,ioos:station:DISL:KATA:1,2017-05-01T18:00:00Z,30.2583,-88.2131,4.452,19.03,1111122 
DISL,ioos:station:DISL:KATA:1,2017-05-01T18:30:00Z,30.2583,-88.2131,4.478,19.76,1111122 
DISL,ioos:station:DISL:KATA:1,2017-05-01T19:00:00Z,30.2583,-88.2131,4.494,19.39,1111122 
DISL,ioos:station:DISL:KATA:1,2017-05-01T19:30:00Z,30.2583,-88.2131,4.493,19.17,1111122 
DISL,ioos:station:DISL:KATA:1,2017-05-01T20:00:00Z,30.2583,-88.2131,4.467,19.5,1111122 
DISL,ioos:station:DISL:KATA:1,2017-05-01T20:30:00Z,30.2583,-88.2131,4.432,19.22,1111122 
DISL,ioos:station:DISL:KATA:1,2017-05-01T21:00:00Z,30.2583,-88.2131,4.379,19.24,1111122 
DISL,ioos:station:DISL:KATA:1,2017-05-01T21:30:00Z,30.2583,-88.2131,4.364,19.46,1111122 
DISL,ioos:station:DISL:KATA:1,2017-05-01T22:00:00Z,30.2583,-88.2131,4.352,19.65,1111122 
DISL,ioos:station:DISL:KATA:1,2017-05-01T22:30:00Z,30.2583,-88.2131,4.339,19.92,1111122 
DISL,ioos:station:DISL:KATA:1,2017-05-01T23:00:00Z,30.2583,-88.2131,4.319,19.61,1111122 
DISL,ioos:station:DISL:KATA:1,2017-05-01T23:30:00Z,30.2583,-88.2131,4.302,19.54,1111122 
DISL,ioos:station:DISL:KATA:1,2017-05-02T00:00:00Z,30.2583,-88.2131,4.275,19.0,1111122 
DISL,ioos:station:DISL:KATA:1,2017-05-02T00:30:00Z,30.2583,-88.2131,4.229,19.75,1111122 
DISL,ioos:station:DISL:KATA:1,2017-05-02T01:00:00Z,30.2583,-88.2131,4.195,19.11,1111122 
DISL,ioos:station:DISL:KATA:1,2017-05-02T01:30:00Z,30.2583,-88.2131,4.151,18.9,1111122 
DISL,ioos:station:DISL:KATA:1,2017-05-02T02:00:00Z,30.2583,-88.2131,4.123,18.71,1111122 
DISL,ioos:station:DISL:KATA:1,2017-05-02T02:30:00Z,30.2583,-88.2131,4.082,18.51,1111122 
DISL,ioos:station:DISL:KATA:1,2017-05-02T03:00:00Z,30.2583,-88.2131,4.043,18.24,1111122 
DISL,ioos:station:DISL:KATA:1,2017-05-02T03:30:00Z,30.2583,-88.2131,4.025,17.9,1111122 
DISL,ioos:station:DISL:KATA:1,2017-05-02T04:00:00Z,30.2583,-88.2131,3.994,17.53,1111122 
DISL,ioos:station:DISL:KATA:1,2017-05-02T04:30:00Z,30.2583,-88.2131,3.969,17.41,1111122 
DISL,ioos:station:DISL:KATA:1,2017-05-02T05:00:00Z,30.2583,-88.2131,3.948,17.48,1111122 
DISL,ioos:station:DISL:KATA:1,2017-05-02T05:30:00Z,30.2583,-88.2131,3.928,17.18,1111122 
DISL,ioos:station:DISL:KATA:1,2017-05-02T06:00:00Z,30.2583,-88.2131,3.919,16.81,1111122 
DISL,ioos:station:DISL:KATA:1,2017-05-02T06:30:00Z,30.2583,-88.2131,3.91,17.19,1111122 
DISL,ioos:station:DISL:KATA:1,2017-05-02T07:00:00Z,30.2583,-88.2131,3.909,17.24,1111122 
DISL,ioos:station:DISL:KATA:1,2017-05-02T07:30:00Z,30.2583,-88.2131,3.917,17.49,1111122 
DISL,ioos:station:DISL:KATA:1,2017-05-02T08:00:00Z,30.2583,-88.2131,3.932,18.0,1111122 
DISL,ioos:station:DISL:KATA:1,2017-05-02T08:30:00Z,30.2583,-88.2131,3.962,18.11,1111122 
DISL,ioos:station:DISL:KATA:1,2017-05-02T09:00:00Z,30.2583,-88.2131,3.989,17.53,1111122 
DISL,ioos:station:DISL:KATA:1,2017-05-02T09:30:00Z,30.2583,-88.2131,4.014,18.07,1111122 
DISL,ioos:station:DISL:KATA:1,2017-05-02T10:00:00Z,30.2583,-88.2131,4.044,17.76,1111122 
DISL,ioos:station:DISL:KATA:1,2017-05-02T10:30:00Z,30.2583,-88.2131,4.067,18.42,1111122 
DISL,ioos:station:DISL:KATA:1,2017-05-02T11:00:00Z,30.2583,-88.2131,4.094,19.1,1111122 
DISL,ioos:station:DISL:KATA:1,2017-05-02T11:30:00Z,30.2583,-88.2131,4.119,18.31,1111122 
DISL,ioos:station:DISL:KATA:1,2017-05-02T12:00:00Z,30.2583,-88.2131,4.148,18.82,1111122 
DISL,ioos:station:DISL:KATA:1,2017-05-02T12:30:00Z,30.2583,-88.2131,4.168,19.62,1111122 
DISL,ioos:station:DISL:KATA:1,2017-05-02T13:00:00Z,30.2583,-88.2131,4.185,20.18,1111122 
DISL,ioos:station:DISL:KATA:1,2017-05-02T13:30:00Z,30.2583,-88.2131,4.205,19.52,1111122 
DISL,ioos:station:DISL:KATA:1,2017-05-02T14:00:00Z,30.2583,-88.2131,4.234,19.56,1111122 
DISL,ioos:station:DISL:KATA:1,2017-05-02T14:30:00Z,30.2583,-88.2131,4.263,19.72,1111122 
DISL,ioos:station:DISL:KATA:1,2017-05-02T15:00:00Z,30.2583,-88.2131,4.287,19.81,1111122 
DISL,ioos:station:DISL:KATA:1,2017-05-02T15:30:00Z,30.2583,-88.2131,4.316,19.88,1111122 
DISL,ioos:station:DISL:KATA:1,2017-05-02T16:00:00Z,30.2583,-88.2131,4.351,19.84,1111122 
DISL,ioos:station:DISL:KATA:1,2017-05-02T16:30:00Z,30.2583,-88.2131,4.358,20.06,1111122 
DISL,ioos:station:DISL:KATA:1,2017-05-02T17:00:00Z,30.2583,-88.2131,4.372,20.55,1111122 
DISL,ioos:station:DISL:KATA:1,2017-05-02T17:30:00Z,30.2583,-88.2131,4.384,20.13,1111122 
DISL,ioos:station:DISL:KATA:1,2017-05-02T18:00:00Z,30.2583,-88.2131,4.388,20.14,1111122 
DISL,ioos:station:DISL:KATA:1,2017-05-02T18:30:00Z,30.2583,-88.2131,4.399,21.29,1111122 
DISL,ioos:station:DISL:KATA:1,2017-05-02T19:00:00Z,30.2583,-88.2131,4.405,20.65,1111122 
DISL,ioos:station:DISL:KATA:1,2017-05-02T19:30:00Z,30.2583,-88.2131,4.402,21.44,1111122 
DISL,ioos:station:DISL:KATA:1,2017-05-02T20:00:00Z,30.2583,-88.2131,4.402,20.5,1111122 
DISL,ioos:station:DISL:KATA:1,2017-05-02T20:30:00Z,30.2583,-88.2131,4.394,20.53,1111122 
DISL,ioos:station:DISL:KATA:1,2017-05-02T21:00:00Z,30.2583,-88.2131,4.37,21.69,1111122 
DISL,ioos:station:DISL:KATA:1,2017-05-02T21:30:00Z,30.2583,-88.2131,4.348,21.43,1111122 
DISL,ioos:station:DISL:KATA:1,2017-05-02T22:00:00Z,30.2583,-88.2131,4.329,21.51,1111122 
DISL,ioos:station:DISL:KATA:1,2017-05-02T22:30:00Z,30.2583,-88.2131,4.309,21.53,1111122 
DISL,ioos:station:DISL:KATA:1,2017-05-02T23:00:00Z,30.2583,-88.2131,4.289,21.44,1111122 
DISL,ioos:station:DISL:KATA:1,2017-05-02T23:30:00Z,30.2583,-88.2131,4.27,21.05,1111122 
DISL,ioos:station:DISL:KATA:1,2017-05-03T00:00:00Z,30.2583,-88.2131,4.245,21.61,1111122 
DISL,ioos:station:DISL:KATA:1,2017-05-03T00:30:00Z,30.2583,-88.2131,4.22,20.7,1111122 
DISL,ioos:station:DISL:KATA:1,2017-05-03T01:00:00Z,30.2583,-88.2131,4.191,20.79,1111122 
DISL,ioos:station:DISL:KATA:1,2017-05-03T01:30:00Z,30.2583,-88.2131,4.156,21.08,1111122 
DISL,ioos:station:DISL:KATA:1,2017-05-03T02:00:00Z,30.2583,-88.2131,4.122,20.52,1111122 
DISL,ioos:station:DISL:KATA:1,2017-05-03T02:30:00Z,30.2583,-88.2131,4.085,19.94,1111122 
DISL,ioos:station:DISL:KATA:1,2017-05-03T03:00:00Z,30.2583,-88.2131,4.047,21.05,1111122 
DISL,ioos:station:DISL:KATA:1,2017-05-03T03:30:00Z,30.2583,-88.2131,4.021,19.66,1111122 
DISL,ioos:station:DISL:KATA:1,2017-05-03T04:00:00Z,30.2583,-88.2131,3.989,19.98,1111122 
DISL,ioos:station:DISL:KATA:1,2017-05-03T04:30:00Z,30.2583,-88.2131,3.961,20.37,1111122 
DISL,ioos:station:DISL:KATA:1,2017-05-03T05:00:00Z,30.2583,-88.2131,3.938,20.09,1111122 
DISL,ioos:station:DISL:KATA:1,2017-05-03T05:30:00Z,30.2583,-88.2131,3.914,19.65,1111122 
DISL,ioos:station:DISL:KATA:1,2017-05-03T06:00:00Z,30.2583,-88.2131,3.91,19.94,1111122 
DISL,ioos:station:DISL:KATA:1,2017-05-03T06:30:00Z,30.2583,-88.2131,3.901,20.48,1111122 
DISL,ioos:station:DISL:KATA:1,2017-05-03T07:00:00Z,30.2583,-88.2131,3.898,20.8,1111122 
DISL,ioos:station:DISL:KATA:1,2017-05-03T07:30:00Z,30.2583,-88.2131,3.897,20.47,1111122 
DISL,ioos:station:DISL:KATA:1,2017-05-03T08:00:00Z,30.2583,-88.2131,3.893,20.44,1111122 
DISL,ioos:station:DISL:KATA:1,2017-05-03T08:30:00Z,30.2583,-88.2131,3.904,20.44,1111122 
DISL,ioos:station:DISL:KATA:1,2017-05-03T09:00:00Z,30.2583,-88.2131,3.909,21.08,1111122 
DISL,ioos:station:DISL:KATA:1,2017-05-03T09:30:00Z,30.2583,-88.2131,3.923,21.09,1111122 
DISL,ioos:station:DISL:KATA:1,2017-05-03T10:00:00Z,30.2583,-88.2131,3.94,21.12,1111122 
DISL,ioos:station:DISL:KATA:1,2017-05-03T10:30:00Z,30.2583,-88.2131,3.957,20.58,1111122 
DISL,ioos:station:DISL:KATA:1,2017-05-03T11:00:00Z,30.2583,-88.2131,3.973,20.33,1111122 
DISL,ioos:station:DISL:KATA:1,2017-05-03T11:30:00Z,30.2583,-88.2131,3.998,20.44,1111122 
DISL,ioos:station:DISL:KATA:1,2017-05-03T12:00:00Z,30.2583,-88.2131,4.018,20.52,1111122 
DISL,ioos:station:DISL:KATA:1,2017-05-03T12:30:00Z,30.2583,-88.2131,4.044,20.55,1111122 
DISL,ioos:station:DISL:KATA:1,2017-05-03T13:00:00Z,30.2583,-88.2131,4.071,20.58,1111122 
DISL,ioos:station:DISL:KATA:1,2017-05-03T13:30:00Z,30.2583,-88.2131,4.097,20.92,1111122 
DISL,ioos:station:DISL:KATA:1,2017-05-03T14:00:00Z,30.2583,-88.2131,4.127,21.15,1111122 
DISL,ioos:station:DISL:KATA:1,2017-05-03T14:30:00Z,30.2583,-88.2131,4.149,21.18,1111122 
DISL,ioos:station:DISL:KATA:1,2017-05-03T15:00:00Z,30.2583,-88.2131,4.172,21.16,1111122 
DISL,ioos:station:DISL:KATA:1,2017-05-03T15:30:00Z,30.2583,-88.2131,4.194,22.12,1111122 
DISL,ioos:station:DISL:KATA:1,2017-05-03T16:00:00Z,30.2583,-88.2131,4.215,22.01,1111122 
DISL,ioos:station:DISL:KATA:1,2017-05-03T16:30:00Z,30.2583,-88.2131,4.222,22.09,1111122 
DISL,ioos:station:DISL:KATA:1,2017-05-03T17:00:00Z,30.2583,-88.2131,4.243,21.2,1111122 
DISL,ioos:station:DISL:KATA:1,2017-05-03T17:30:00Z,30.2583,-88.2131,4.267,21.98,1111122 
DISL,ioos:station:DISL:KATA:1,2017-05-03T18:00:00Z,30.2583,-88.2131,4.29,22.07,1111122 
DISL,ioos:station:DISL:KATA:1,2017-05-03T18:30:00Z,30.2583,-88.2131,4.316,21.93,1111122 
DISL,ioos:station:DISL:KATA:1,2017-05-03T19:00:00Z,30.2583,-88.2131,4.338,22.21,1111122 
DISL,ioos:station:DISL:KATA:1,2017-05-03T19:30:00Z,30.2583,-88.2131,4.32,21.12,1111122 
DISL,ioos:station:DISL:KATA:1,2017-05-03T20:00:00Z,30.2583,-88.2131,4.358,21.04,1111122 
DISL,ioos:station:DISL:KATA:1,2017-05-03T20:30:00Z,30.2583,-88.2131,4.233,22.34,1111122 
DISL,ioos:station:DISL:KATA:1,2017-05-03T21:00:00Z,30.2583,-88.2131,4.3,22.36,1111122 
DISL,ioos:station:DISL:KATA:1,2017-05-03T21:30:00Z,30.2583,-88.2131,4.273,22.48,1111122 
DISL,ioos:station:DISL:KATA:1,2017-05-03T22:00:00Z,30.2583,-88.2131,4.487,22.0,1111122 
DISL,ioos:station:DISL:KATA:1,2017-05-03T22:30:00Z,30.2583,-88.2131,4.627,21.1,1111122 
DISL,ioos:station:DISL:KATA:1,2017-05-03T23:00:00Z,30.2583,-88.2131,4.412,22.86,1111122 
DISL,ioos:station:DISL:KATA:1,2017-05-03T23:30:00Z,30.2583,-88.2131,4.298,22.31,1111122 
DISL,ioos:station:DISL:KATA:1,2017-05-04T00:00:00Z,30.2583,-88.2131,4.03,20.26,1111122 
DISL,ioos:station:DISL:KATA:1,2017-05-04T00:30:00Z,30.2583,-88.2131,3.886,19.5,1111122 
DISL,ioos:station:DISL:KATA:1,2017-05-04T01:00:00Z,30.2583,-88.2131,3.894,19.53,1111122 
DISL,ioos:station:DISL:KATA:1,2017-05-04T01:30:00Z,30.2583,-88.2131,3.899,19.45,1111122 
DISL,ioos:station:DISL:KATA:1,2017-05-04T02:00:00Z,30.2583,-88.2131,4.02,19.75,1111122 
DISL,ioos:station:DISL:KATA:1,2017-05-04T02:30:00Z,30.2583,-88.2131,4.166,19.66,1111122 
DISL,ioos:station:DISL:KATA:1,2017-05-04T03:00:00Z,30.2583,-88.2131,4.349,19.62,1111122 
DISL,ioos:station:DISL:KATA:1,2017-05-04T03:30:00Z,30.2583,-88.2131,4.494,19.79,1111122 
DISL,ioos:station:DISL:KATA:1,2017-05-04T04:00:00Z,30.2583,-88.2131,4.539,20.06,1111122 
DISL,ioos:station:DISL:KATA:1,2017-05-04T04:30:00Z,30.2583,-88.2131,4.475,20.18,1111122 
DISL,ioos:station:DISL:KATA:1,2017-05-04T05:00:00Z,30.2583,-88.2131,4.367,21.03,1111122 
DISL,ioos:station:DISL:KATA:1,2017-05-04T05:30:00Z,30.2583,-88.2131,4.213,19.97,1111122 
DISL,ioos:station:DISL:KATA:1,2017-05-04T06:00:00Z,30.2583,-88.2131,4.129,20.29,1111122 
DISL,ioos:station:DISL:KATA:1,2017-05-04T06:30:00Z,30.2583,-88.2131,4.09,19.88,1111122 
DISL,ioos:station:DISL:KATA:1,2017-05-04T07:00:00Z,30.2583,-88.2131,3.986,19.66,1111122 
DISL,ioos:station:DISL:KATA:1,2017-05-04T07:30:00Z,30.2583,-88.2131,3.909,19.23,1111122 
DISL,ioos:station:DISL:KATA:1,2017-05-04T08:00:00Z,30.2583,-88.2131,3.905,19.13,1111122 
DISL,ioos:station:DISL:KATA:1,2017-05-04T08:30:00Z,30.2583,-88.2131,3.858,19.5,1111122 
DISL,ioos:station:DISL:KATA:1,2017-05-04T09:00:00Z,30.2583,-88.2131,3.821,19.13,1111122 
DISL,ioos:station:DISL:KATA:1,2017-05-04T09:30:00Z,30.2583,-88.2131,3.784,17.55,1111122 
DISL,ioos:station:DISL:KATA:1,2017-05-04T10:00:00Z,30.2583,-88.2131,3.739,16.26,1111122 
DISL,ioos:station:DISL:KATA:1,2017-05-04T10:30:00Z,30.2583,-88.2131,3.705,16.14,1111122 
DISL,ioos:station:DISL:KATA:1,2017-05-04T11:00:00Z,30.2583,-88.2131,3.752,16.85,1111122 
DISL,ioos:station:DISL:KATA:1,2017-05-04T11:30:00Z,30.2583,-88.2131,3.842,15.98,1111122 
DISL,ioos:station:DISL:KATA:1,2017-05-04T12:00:00Z,30.2583,-88.2131,3.882,15.89,1111122 
DISL,ioos:station:DISL:KATA:1,2017-05-04T12:30:00Z,30.2583,-88.2131,3.949,15.85,1111122 
DISL,ioos:station:DISL:KATA:1,2017-05-04T13:00:00Z,30.2583,-88.2131,4.219,16.6,1111122 
DISL,ioos:station:DISL:KATA:1,2017-05-04T13:30:00Z,30.2583,-88.2131,4.364,17.03,1111122 
DISL,ioos:station:DISL:KATA:1,2017-05-04T14:00:00Z,30.2583,-88.2131,4.429,17.29,1111122 
DISL,ioos:station:DISL:KATA:1,2017-05-04T14:30:00Z,30.2583,-88.2131,4.52,18.79,1111122 
DISL,ioos:station:DISL:KATA:1,2017-05-04T15:00:00Z,30.2583,-88.2131,4.611,20.02,1111122 
DISL,ioos:station:DISL:KATA:1,2017-05-04T15:30:00Z,30.2583,-88.2131,4.664,20.13,1111122 
DISL,ioos:station:DISL:KATA:1,2017-05-04T16:00:00Z,30.2583,-88.2131,4.698,20.73,1111122 
DISL,ioos:station:DISL:KATA:1,2017-05-04T16:30:00Z,30.2583,-88.2131,4.623,19.77,1111122 
DISL,ioos:station:DISL:KATA:1,2017-05-04T17:00:00Z,30.2583,-88.2131,4.542,19.48,1111122 
DISL,ioos:station:DISL:KATA:1,2017-05-04T17:30:00Z,30.2583,-88.2131,4.349,19.94,1111122 
DISL,ioos:station:DISL:KATA:1,2017-05-04T18:00:00Z,30.2583,-88.2131,4.263,20.64,1111122 
DISL,ioos:station:DISL:KATA:1,2017-05-04T18:30:00Z,30.2583,-88.2131,4.217,20.42,1111122 
DISL,ioos:station:DISL:KATA:1,2017-05-04T19:00:00Z,30.2583,-88.2131,4.265,20.35,1111122 
DISL,ioos:station:DISL:KATA:1,2017-05-04T19:30:00Z,30.2583,-88.2131,4.343,20.84,1111122 
DISL,ioos:station:DISL:KATA:1,2017-05-04T20:00:00Z,30.2583,-88.2131,4.463,20.7,1111122 
DISL,ioos:station:DISL:KATA:1,2017-05-04T20:30:00Z,30.2583,-88.2131,4.354,20.73,1111122 
DISL,ioos:station:DISL:KATA:1,2017-05-04T21:00:00Z,30.2583,-88.2131,4.351,20.74,1111122 
DISL,ioos:station:DISL:KATA:1,2017-05-04T21:30:00Z,30.2583,-88.2131,4.308,20.74,1111122 
DISL,ioos:station:DISL:KATA:1,2017-05-04T22:00:00Z,30.2583,-88.2131,4.21,20.69,1111122 
DISL,ioos:station:DISL:KATA:1,2017-05-04T22:30:00Z,30.2583,-88.2131,4.19,20.67,1111122 
DISL,ioos:station:DISL:KATA:1,2017-05-04T23:00:00Z,30.2583,-88.2131,4.215,20.47,1111122 
DISL,ioos:station:DISL:KATA:1,2017-05-04T23:30:00Z,30.2583,-88.2131,4.093,20.7,1111122 
DISL,ioos:station:DISL:KATA:1,2017-05-05T00:00:00Z,30.2583,-88.2131,4.246,20.13,1111122 
DISL,ioos:station:DISL:KATA:1,2017-05-05T00:30:00Z,30.2583,-88.2131,4.243,20.42,1111122 
DISL,ioos:station:DISL:KATA:1,2017-05-05T01:00:00Z,30.2583,-88.2131,4.156,19.21,1111122 
DISL,ioos:station:DISL:KATA:1,2017-05-05T01:30:00Z,30.2583,-88.2131,4.108,19.14,1111122 
DISL,ioos:station:DISL:KATA:1,2017-05-05T02:00:00Z,30.2583,-88.2131,4.116,19.17,1111122 
DISL,ioos:station:DISL:KATA:1,2017-05-05T02:30:00Z,30.2583,-88.2131,4.227,19.0,1111122 
DISL,ioos:station:DISL:KATA:1,2017-05-05T03:00:00Z,30.2583,-88.2131,4.027,19.55,1111122 
DISL,ioos:station:DISL:KATA:1,2017-05-05T03:30:00Z,30.2583,-88.2131,3.873,19.75,1111122 
DISL,ioos:station:DISL:KATA:1,2017-05-05T04:00:00Z,30.2583,-88.2131,4.061,19.41,1111122 
DISL,ioos:station:DISL:KATA:1,2017-05-05T04:30:00Z,30.2583,-88.2131,3.866,18.18,1111122 
DISL,ioos:station:DISL:KATA:1,2017-05-05T05:00:00Z,30.2583,-88.2131,3.908,18.58,1111122 
DISL,ioos:station:DISL:KATA:1,2017-05-05T05:30:00Z,30.2583,-88.2131,3.777,18.54,1111122 
DISL,ioos:station:DISL:KATA:1,2017-05-05T06:00:00Z,30.2583,-88.2131,3.757,19.24,1111122 
DISL,ioos:station:DISL:KATA:1,2017-05-05T06:30:00Z,30.2583,-88.2131,3.765,18.8,1111122 
DISL,ioos:station:DISL:KATA:1,2017-05-05T07:00:00Z,30.2583,-88.2131,3.716,18.84,1111122 
DISL,ioos:station:DISL:KATA:1,2017-05-05T07:30:00Z,30.2583,-88.2131,3.733,19.3,1111122 
DISL,ioos:station:DISL:KATA:1,2017-05-05T08:00:00Z,30.2583,-88.2131,3.795,18.9,1111122 
DISL,ioos:station:DISL:KATA:1,2017-05-05T08:30:00Z,30.2583,-88.2131,3.887,18.43,1111122 
DISL,ioos:station:DISL:KATA:1,2017-05-05T09:00:00Z,30.2583,-88.2131,3.899,18.7,1111122 
DISL,ioos:station:DISL:KATA:1,2017-05-05T09:30:00Z,30.2583,-88.2131,3.96,18.28,1111122 
DISL,ioos:station:DISL:KATA:1,2017-05-05T10:00:00Z,30.2583,-88.2131,3.958,18.3,1111122 
DISL,ioos:station:DISL:KATA:1,2017-05-05T10:30:00Z,30.2583,-88.2131,3.869,19.01,1111122 
DISL,ioos:station:DISL:KATA:1,2017-05-05T11:00:00Z,30.2583,-88.2131,3.887,18.32,1111122 
DISL,ioos:station:DISL:KATA:1,2017-05-05T11:30:00Z,30.2583,-88.2131,3.941,18.71,1111122 
DISL,ioos:station:DISL:KATA:1,2017-05-05T12:00:00Z,30.2583,-88.2131,3.956,19.05,1111122 
DISL,ioos:station:DISL:KATA:1,2017-05-05T12:30:00Z,30.2583,-88.2131,4.001,19.03,1111122 
DISL,ioos:station:DISL:KATA:1,2017-05-05T13:00:00Z,30.2583,-88.2131,3.966,18.49,1111122 
DISL,ioos:station:DISL:KATA:1,2017-05-05T13:30:00Z,30.2583,-88.2131,4.117,18.44,1111122 
DISL,ioos:station:DISL:KATA:1,2017-05-05T14:00:00Z,30.2583,-88.2131,4.257,19.13,1111122 
DISL,ioos:station:DISL:KATA:1,2017-05-05T14:30:00Z,30.2583,-88.2131,4.187,19.37,1111122 
DISL,ioos:station:DISL:KATA:1,2017-05-05T15:00:00Z,30.2583,-88.2131,4.016,18.59,1111122 
DISL,ioos:station:DISL:KATA:1,2017-05-05T15:30:00Z,30.2583,-88.2131,4.207,19.61,1111122 
DISL,ioos:station:DISL:KATA:1,2017-05-05T16:00:00Z,30.2583,-88.2131,4.239,19.64,1111122 
DISL,ioos:station:DISL:KATA:1,2017-05-05T16:30:00Z,30.2583,-88.2131,4.202,19.7,1111122 
DISL,ioos:station:DISL:KATA:1,2017-05-05T17:00:00Z,30.2583,-88.2131,4.146,19.74,1111122 
DISL,ioos:station:DISL:KATA:1,2017-05-05T17:30:00Z,30.2583,-88.2131,4.162,19.6,1111122 
DISL,ioos:station:DISL:KATA:1,2017-05-05T18:00:00Z,30.2583,-88.2131,4.036,19.38,1111122 
DISL,ioos:station:DISL:KATA:1,2017-05-05T18:30:00Z,30.2583,-88.2131,4.046,19.59,1111122 
DISL,ioos:station:DISL:KATA:1,2017-05-05T19:00:00Z,30.2583,-88.2131,3.987,19.5,1111122 
DISL,ioos:station:DISL:KATA:1,2017-05-05T19:30:00Z,30.2583,-88.2131,3.988,19.5,1111122 
DISL,ioos:station:DISL:KATA:1,2017-05-05T20:00:00Z,30.2583,-88.2131,3.926,19.46,1111122 
DISL,ioos:station:DISL:KATA:1,2017-05-05T20:30:00Z,30.2583,-88.2131,3.901,19.42,1111122 
DISL,ioos:station:DISL:KATA:1,2017-05-05T21:00:00Z,30.2583,-88.2131,3.918,19.74,1111122 
DISL,ioos:station:DISL:KATA:1,2017-05-05T21:30:00Z,30.2583,-88.2131,3.955,19.79,1111122 
DISL,ioos:station:DISL:KATA:1,2017-05-05T22:00:00Z,30.2583,-88.2131,3.921,19.82,1111122 
DISL,ioos:station:DISL:KATA:1,2017-05-05T22:30:00Z,30.2583,-88.2131,3.983,19.85,1111122 
DISL,ioos:station:DISL:KATA:1,2017-05-05T23:00:00Z,30.2583,-88.2131,3.981,19.77,1111122 
DISL,ioos:station:DISL:KATA:1,2017-05-05T23:30:00Z,30.2583,-88.2131,4.007,19.82,1111122 
DISL,ioos:station:DISL:KATA:1,2017-05-06T00:00:00Z,30.2583,-88.2131,3.993,19.52,1111122 
DISL,ioos:station:DISL:KATA:1,2017-05-06T00:30:00Z,30.2583,-88.2131,3.983,19.17,1111122 
DISL,ioos:station:DISL:KATA:1,2017-05-06T01:00:00Z,30.2583,-88.2131,3.947,19.42,1111122 
DISL,ioos:station:DISL:KATA:1,2017-05-06T01:30:00Z,30.2583,-88.2131,3.927,19.42,1111122 
DISL,ioos:station:DISL:KATA:1,2017-05-06T02:00:00Z,30.2583,-88.2131,3.913,19.27,1111122 
DISL,ioos:station:DISL:KATA:1,2017-05-06T02:30:00Z,30.2583,-88.2131,3.9,19.72,1111122 
DISL,ioos:station:DISL:KATA:1,2017-05-06T03:00:00Z,30.2583,-88.2131,3.891,19.17,1111122 
DISL,ioos:station:DISL:KATA:1,2017-05-06T03:30:00Z,30.2583,-88.2131,3.876,19.16,1111122 
DISL,ioos:station:DISL:KATA:1,2017-05-06T04:00:00Z,30.2583,-88.2131,3.862,20.0,1111122 
DISL,ioos:station:DISL:KATA:1,2017-05-06T04:30:00Z,30.2583,-88.2131,3.845,18.97,1111122 
DISL,ioos:station:DISL:KATA:1,2017-05-06T05:00:00Z,30.2583,-88.2131,3.83,19.05,1111122 
DISL,ioos:station:DISL:KATA:1,2017-05-06T05:30:00Z,30.2583,-88.2131,3.814,19.06,1111122 
DISL,ioos:station:DISL:KATA:1,2017-05-06T06:00:00Z,30.2583,-88.2131,3.801,19.2,1111122 
DISL,ioos:station:DISL:KATA:1,2017-05-06T06:30:00Z,30.2583,-88.2131,3.8,19.12,1111122 
DISL,ioos:station:DISL:KATA:1,2017-05-06T07:00:00Z,30.2583,-88.2131,3.815,19.43,1111122 
DISL,ioos:station:DISL:KATA:1,2017-05-06T07:30:00Z,30.2583,-88.2131,3.837,19.23,1111122 
DISL,ioos:station:DISL:KATA:1,2017-05-06T08:00:00Z,30.2583,-88.2131,3.857,19.22,1111122 
DISL,ioos:station:DISL:KATA:1,2017-05-06T08:30:00Z,30.2583,-88.2131,3.889,19.77,1111122 
DISL,ioos:station:DISL:KATA:1,2017-05-06T09:00:00Z,30.2583,-88.2131,3.896,19.68,1111122 
DISL,ioos:station:DISL:KATA:1,2017-05-06T09:30:00Z,30.2583,-88.2131,3.922,19.92,1111122 
DISL,ioos:station:DISL:KATA:1,2017-05-06T10:00:00Z,30.2583,-88.2131,3.94,19.82,1111122 
DISL,ioos:station:DISL:KATA:1,2017-05-06T10:30:00Z,30.2583,-88.2131,3.949,19.64,1111122 
DISL,ioos:station:DISL:KATA:1,2017-05-06T11:00:00Z,30.2583,-88.2131,3.963,19.85,1111122 
DISL,ioos:station:DISL:KATA:1,2017-05-06T11:30:00Z,30.2583,-88.2131,3.953,20.15,1111122 
DISL,ioos:station:DISL:KATA:1,2017-05-06T12:00:00Z,30.2583,-88.2131,3.947,19.94,1111122 
DISL,ioos:station:DISL:KATA:1,2017-05-06T12:30:00Z,30.2583,-88.2131,3.939,20.68,1111122 
DISL,ioos:station:DISL:KATA:1,2017-05-06T13:00:00Z,30.2583,-88.2131,3.945,20.53,1111122 
DISL,ioos:station:DISL:KATA:1,2017-05-06T13:30:00Z,30.2583,-88.2131,3.956,20.82,1111122 
DISL,ioos:station:DISL:KATA:1,2017-05-06T14:00:00Z,30.2583,-88.2131,3.974,20.74,1111122 